logo
App data

A Blind Legend

Store | Hub | SteamDB | Site
Developer: Dowino Publisher: Plug In Digital
Genre: Action, Adventure, Indie
Languages: English, French
Tags: Adventure (22), Action (21), Indie (20)
Category: Single-player, Steam Achievements, Full controller support, Steam Trading Cards, Steam Cloud
Release date: Apr 7, 2016
Price: $6.99
Old userscore: 80% Owners: 0 .. 20,000
Followers: 1,931
Peak concurrent players yesterday: 1
YouTube stats: 113 views and 12 comments for videos uploaded last week, 0 new videos uploaded yesterday.
Playtime total: 02:15 (average) 02:34 (median)

Steam Spy is still in beta, so expect major bugs.

Owners data:

Access restricted.

This feature is only available to users with special access rights. Sorry.

If you want to proceed, you need to register or log in first and then back Steam Spy on Patreon. Look for Indie or Pro pledge.

Don't forget to use the same email as on Steam Spy!

Audience in 2 weeks:

Access restricted.

This feature is only available to users with special access rights. Sorry.

If you want to proceed, you need to register or log in first and then back Steam Spy on Patreon. Look for Indie or Pro pledge.

Don't forget to use the same email as on Steam Spy!

Peak daily concurrent players:

CCU data courtesy of SteamDB. Used with permission.

Hourly concurrent players:

YouTube:

The views data is based on top 50 videos uploaded last week. Actual number of views might be more than the number shown.

The displayed number of videos uploaded yesterday is limited to 50, so if there were more videos uploaded, the number will still show 50.

If the game has commonly used word as its name (like "FEAR" or "Volume") its number of Youtube views might be wrong.

Games similar to this one:

# Game Release date
Price
Score rank
(Userscore / Metascore)
Owners
Players
Playtime (Median)
1 Little Big Adventure 2 Oct 20, 2015 $3.9998% (98%)20,000 .. 50,0000%00:00 (00:00)
2 Militia Dec 2, 2015 $2.99N/A (N/A)0 .. 20,0000%00:00 (00:00)
3 Seven Kingdoms: Ancient Adversaries Mar 22, 2016 $5.99N/A (N/A)0 .. 20,0000%00:00 (00:00)
4 Spider: Rite of the Shrouded Moon Aug 6, 2015 $9.99N/A (N/A)20,000 .. 50,0000%00:00 (00:00)
5 Dungeon Warfare Nov 4, 2015 $9.9996% (97%)20,000 .. 50,0000%00:00 (00:00)
6 Voodoo Vince: Remastered Apr 17, 2017 $14.99N/A (N/A/63%)0 .. 20,0000%00:00 (00:00)
7 Defend The Highlands Nov 6, 2015 $9.99N/A (N/A)100,000 .. 200,0002%01:12 (01:35)
8 Imperium Galactica Jan 19, 2017 $4.99N/A (N/A)0 .. 20,0000%00:00 (00:00)
9 Templar Battleforce Sep 21, 2015 $9.9990% (95%)20,000 .. 50,0000%00:00 (00:00)
10 Outcast 1.1 Dec 18, 2014 $5.99N/A (N/A)20,000 .. 50,0000%00:00 (00:00)
11 Chicken Invaders 2 Mar 4, 2016 $3.99N/A (N/A)0 .. 20,0000%00:00 (00:00)
12 Darknet Jun 8, 2017 $7.49N/A (N/A)0 .. 20,0005.88%03:13 (01:04)
13 PixelJunk Shooter Nov 11, 2013 $8.99N/A (N/A/73%)100,000 .. 200,0000%00:00 (00:00)
14 Hegemony Gold: Wars of Ancient Greece Mar 30, 2012 $14.99N/A (N/A)20,000 .. 50,0000%00:00 (00:00)
15 ESCHATOS Sep 18, 2015 $14.99N/A (N/A)0 .. 20,0000%00:00 (00:00)
16 Majesty Gold HD Sep 4, 2009 $9.99N/A (N/A)100,000 .. 200,0000%00:00 (00:00)
17 Kalimba Apr 22, 2015 $9.9987% (94%/81%)0 .. 20,0000%00:00 (00:00)
18 Star Trek: Judgment Rites May 8, 2015 $9.99N/A (N/A)0 .. 20,0000%00:00 (00:00)
19 Stick it to The Man! Dec 13, 2013 $7.99N/A (N/A/83%)50,000 .. 100,0000%00:00 (00:00)
20 Flywrench Aug 24, 2015 $6.99N/A (N/A)0 .. 20,0000%00:00 (00:00)
21 Supercharged Robot VULKAISER Jun 4, 2015 $4.9987% (94%)20,000 .. 50,0000%00:00 (00:00)
22 Gold Rush! Classic Jul 25, 2014 $2.99N/A (N/A)200,000 .. 500,0000.51%01:41 (01:07)
23 Run or Die Dec 11, 2014 $4.9987% (94%)0 .. 20,0000%00:00 (00:00)
24 Audio Arena Jul 25, 2016 $2.79N/A (N/A)0 .. 20,0000%00:00 (00:00)
25 Handsome Mr. Frog Aug 8, 2016 $0.99N/A (N/A)0 .. 20,0000%00:00 (00:00)
26 Neon Chrome Apr 28, 2016 $14.9987% (94%/74%)200,000 .. 500,0000.64%00:10 (00:03)
27 Ys VI: The Ark of Napishtim Apr 28, 2015 $19.9983% (93%)50,000 .. 100,0000%00:00 (00:00)
28 Anarcute Jul 12, 2016 $14.99N/A (N/A/79%)0 .. 20,0008.33%00:14 (00:04)
29 Pharaoh Rebirth+ Mar 17, 2016 $9.99N/A (N/A)0 .. 20,0000%00:00 (00:00)
30 Kick Ass Commandos Nov 17, 2016 $9.99N/A (N/A)20,000 .. 50,0000%00:00 (00:00)
31 RIVE: Wreck, Hack, Die, Retry! Sep 13, 2016 $14.99N/A (N/A)200,000 .. 500,0000%00:00 (00:00)
32 Adventure in the Tower of Flight Dec 23, 2015 $4.99N/A (N/A)0 .. 20,0000%00:00 (00:00)
33 Eufloria HD Oct 14, 2014 $14.9983% (93%)200,000 .. 500,0001.06%00:09 (00:03)
34 Major Mayhem Feb 24, 2014 $4.99N/A (N/A)20,000 .. 50,0000%00:00 (00:00)
35 Bleed Jul 3, 2013 $1.69N/A (N/A)100,000 .. 200,0000%00:00 (00:00)
36 Super Cyborg Jul 8, 2015 $4.99N/A (N/A)20,000 .. 50,0000%00:00 (00:00)
37 Battle Academy 2: Eastern Front Sep 12, 2014 $39.99N/A (N/A/78%)0 .. 20,0000%00:00 (00:00)
38 Tallowmere Mar 3, 2015 $3.99N/A (N/A)20,000 .. 50,0003.45%00:01 (00:00)
39 Wars and Warriors: Joan of Arc Sep 3, 2015 $6.99N/A (N/A/60%)0 .. 20,0000%00:00 (00:00)
40 Super Trench Attack! Jul 24, 2014 $4.99N/A (N/A)100,000 .. 200,0000%00:00 (00:00)
41 Knightmare Tower Jun 16, 2014 $3.99N/A (N/A)0 .. 20,0000%00:00 (00:00)
42 Ittle Dew Jul 23, 2013 $9.99N/A (N/A/67%)100,000 .. 200,0000%00:00 (00:00)
43 Mad Bullets Jun 10, 2016 $1.99N/A (N/A)0 .. 20,0003.85%19:13 (06:24)
44 Below Kryll Sep 7, 2015 $0.99N/A (N/A)0 .. 20,0000%00:00 (00:00)
45 The Juicer Sep 11, 2015 $0.99N/A (N/A)20,000 .. 50,0000%00:00 (00:00)
46 Death Ray Manta SE Sep 17, 2015 $1.99N/A (N/A)50,000 .. 100,0000%00:00 (00:00)
47 Swords and Soldiers HD Dec 2, 2010 $9.99N/A (N/A)200,000 .. 500,0000%00:00 (00:00)
48 Valley Aug 24, 2016 $19.9973% (91%)100,000 .. 200,0001.59%00:46 (00:15)
49 Momodora III Jul 1, 2014 $1.99N/A (N/A)50,000 .. 100,0001.96%01:02 (00:20)
50 Demons with Shotguns Apr 25, 2016 $9.99N/A (N/A)0 .. 20,0003.03%03:02 (01:00)
51 Skulls of the Shogun Jul 29, 2013 $9.99N/A (N/A/72%)200,000 .. 500,0000%00:00 (00:00)
52 Khet 2.0 Oct 1, 2014 $9.99N/A (N/A)50,000 .. 100,0000%00:00 (00:00)
53 Near Death Aug 2, 2016 $14.99N/A (N/A/70%)0 .. 20,0000%00:00 (00:00)
54 Armed with Wings: Rearmed Jun 1, 2017 $9.99N/A (N/A)20,000 .. 50,0000%00:00 (00:00)
55 Great Big War Game Aug 28, 2012 $6.99N/A (N/A)0 .. 20,0000%00:00 (00:00)
56 Ace of Seafood Apr 8, 2016 $11.99N/A (N/A)0 .. 20,0000%00:00 (00:00)
57 Blue Estate The Game Apr 8, 2015 $12.99N/A (N/A/59%)50,000 .. 100,0001.06%00:01 (00:00)
58 Counter Spell Oct 5, 2015 $9.99N/A (N/A)0 .. 20,0000%00:00 (00:00)
59 Earth Defense Force: Insect Armageddon Dec 14, 2011 $9.99N/A (N/A/69%)50,000 .. 100,0000%00:00 (00:00)
60 Dandy: Or a Brief Glimpse Into the Life of the Candy Alchemist Aug 4, 2015 $9.99N/A (N/A)0 .. 20,0000%00:00 (00:00)
61 Miracle Fly Oct 26, 2015 $7.99N/A (N/A)20,000 .. 50,0000%00:00 (00:00)
62 Clash of Puppets Dec 16, 2014 $4.99N/A (N/A)0 .. 20,0000%00:00 (00:00)
63 Angry Video Game Nerd II: ASSimilation Mar 29, 2016 $9.99N/A (N/A)20,000 .. 50,0000%00:00 (00:00)
64 Headlander Jul 25, 2016 $19.99N/A (N/A/74%)100,000 .. 200,0001.2%04:02 (01:20)
65 Wild Guns Reloaded Jul 11, 2017 $19.99N/A (N/A)0 .. 20,00025%00:03 (00:01)
66 Darksiders Sep 23, 2010 N/AN/A (N/A/83%)20,000 .. 50,0000%00:00 (00:00)
67 Weird Hero Nov 18, 2016 $2.99N/A (N/A)0 .. 20,0000%00:00 (00:00)
68 Superstatic Sep 15, 2015 $4.99N/A (N/A)0 .. 20,0000%00:00 (00:00)
69 Silent Storm Gold Edition Oct 2, 2013 $9.99N/A (N/A/83%)100,000 .. 200,0000%00:00 (00:00)
70 Death's Hangover Jan 20, 2017 $4.99N/A (N/A)50,000 .. 100,0001.59%04:51 (01:37)
71 Apocalypse: Party's Over May 30, 2016 $4.99N/A (N/A)0 .. 20,0000%00:00 (00:00)
72 Lethe - Episode One Aug 1, 2016 $14.99N/A (N/A)0 .. 20,0000%00:00 (00:00)
73 Warhammer 40,000: Dawn of War Winter Assault Aug 7, 2007 $12.99N/A (N/A)1,000,000 .. 2,000,0000.54%00:01 (00:00)
74 Planet of the Eyes Aug 24, 2015 $9.9969% (90%/66%)50,000 .. 100,0000%00:00 (00:00)
75 Warrior Kings: Battles May 6, 2014 $9.99N/A (N/A/64%)0 .. 20,0000%00:00 (00:00)
76 Explosionade Sep 23, 2015 $0.99N/A (N/A)20,000 .. 50,0000%00:00 (00:00)
77 Fort Meow Jun 24, 2015 $7.99N/A (N/A)0 .. 20,0000%00:00 (00:00)
78 MoonBase Commander Feb 6, 2014 $5.99N/A (N/A/77%)20,000 .. 50,0000%00:00 (00:00)
79 Codename: Panzers, Phase Two Feb 18, 2016 $14.99N/A (N/A/80%)20,000 .. 50,0000%00:00 (00:00)
80 Spectromancer Feb 11, 2009 $9.99N/A (N/A)20,000 .. 50,0000%00:00 (00:00)
81 Sneaky Sneaky Nov 12, 2014 $4.99N/A (N/A/63%)20,000 .. 50,0000%00:00 (00:00)
82 Reverse Crawl Sep 24, 2015 $5.99N/A (N/A)50,000 .. 100,0000%00:00 (00:00)
83 CastleStorm Jul 29, 2013 $9.99N/A (N/A/73%)200,000 .. 500,0000%00:00 (00:00)
84 Avoid - Sensory Overload Apr 8, 2014 $4.99N/A (N/A)0 .. 20,0000%00:00 (00:00)
85 Zombo Buster Rising Oct 2, 2016 $1.99N/A (N/A)0 .. 20,0000%00:00 (00:00)
86 Battlepillars Gold Edition Apr 28, 2014 $4.99N/A (N/A)20,000 .. 50,0000%00:00 (00:00)
87 Lethal VR Nov 8, 2016 $3.74N/A (N/A/66%)0 .. 20,0000%00:00 (00:00)
88 Interloper May 21, 2015 $1N/A (N/A/77%)50,000 .. 100,0000%00:00 (00:00)
89 Earn to Die 2 May 5, 2016 $4.99N/A (N/A)0 .. 20,0000%00:00 (00:00)
90 Amaranthine Apr 6, 2016 $2.99N/A (N/A)20,000 .. 50,00010.71%02:00 (01:17)
91 Atom Zombie Smasher Mar 14, 2011 $9.99N/A (N/A/75%)200,000 .. 500,0000.98%00:06 (00:02)
92 Steel Rain Dec 3, 2015 $9.99N/A (N/A)0 .. 20,0000%00:00 (00:00)
93 Anodyne Mar 22, 2013 $9.99N/A (N/A/75%)100,000 .. 200,0001.18%04:29 (01:29)
94 The Fall May 30, 2014 $9.99N/A (N/A/76%)200,000 .. 500,0000%00:00 (00:00)
95 Blacksea Odyssey Jun 1, 2016 $9.99N/A (N/A/74%)20,000 .. 50,0000%00:00 (00:00)
96 Syrian Warfare Feb 21, 2017 $14.9962% (88%)20,000 .. 50,00014.81%02:06 (02:17)
97 The Way May 20, 2016 $14.9962% (88%/67%)20,000 .. 50,0000%00:00 (00:00)
98 Tcheco in the Castle of Lucio Jun 22, 2015 $0.9962% (88%)50,000 .. 100,0000%00:00 (00:00)
99 Greed Corp Dec 10, 2010 $9.99N/A (N/A/76%)200,000 .. 500,0001.1%00:24 (00:08)
100 Viking Squad Oct 4, 2016 $14.99N/A (N/A)0 .. 20,0000%00:00 (00:00)
101 Mr. Shifty Apr 13, 2017 $14.9959% (87%)200,000 .. 500,0003.49%00:09 (00:06)
102 Super Furball Apr 21, 2015 $3.99N/A (N/A)0 .. 20,0000%00:00 (00:00)
103 Civilization IV: Warlords Apr 6, 2007 $4.99N/A (N/A/84%)1,000,000 .. 2,000,0000%00:00 (00:00)
104 Bullet Sorrow VR Apr 17, 2017 $19.9959% (87%)0 .. 20,0000%00:00 (00:00)
105 Shadow Blade: Reload Aug 10, 2015 $14.99N/A (N/A/70%)20,000 .. 50,0000%00:00 (00:00)
106 Tron 2.0 Oct 10, 2014 $9.99N/A (N/A/84%)20,000 .. 50,0000%00:00 (00:00)
107 Spooky Cats Jun 4, 2015 $2.99N/A (N/A)20,000 .. 50,0001.72%01:30 (00:30)
108 Civilization IV: Warlords Apr 6, 2007 $4.99N/A (N/A/84%)1,000,000 .. 2,000,0000%00:00 (00:00)
109 Supreme Commander Sep 28, 2011 $14.99N/A (N/A/86%)500,000 .. 1,000,0000.51%00:02 (00:00)
110 Sang-Froid - Tales of Werewolves Apr 5, 2013 FreeN/A (N/A/79%)200,000 .. 500,0000%00:00 (00:00)
111 Age of Wonders Shadow Magic Oct 2010 $2.49N/A (N/A/82%)100,000 .. 200,0000%00:00 (00:00)
112 Arcane Sorcery Sep 15, 2015 $4.99N/A (N/A)0 .. 20,0000%00:00 (00:00)
113 The Haunted: Hells Reach Oct 24, 2011 $8.99N/A (N/A/51%)50,000 .. 100,0000%00:00 (00:00)
114 Meltdown Jun 5, 2014 $6.99N/A (N/A)50,000 .. 100,0000%00:00 (00:00)
115 Time Rifters Oct 21, 2014 $9.9956% (86%)0 .. 20,00016.67%01:49 (01:10)
116 Ghost Master Dec 21, 2006 $4.99N/A (N/A/81%)100,000 .. 200,0000%00:00 (00:00)
117 N2O: Nitrous Oxide Jun 29, 2015 $4.99N/A (N/A)0 .. 20,0000%00:00 (00:00)
118 VelocityUltra Dec 12, 2013 $9.99N/A (N/A)50,000 .. 100,0002.47%03:52 (02:34)
119 The Tiny Tale 2 Jan 30, 2015 $6.99N/A (N/A)0 .. 20,0000%00:00 (00:00)
120 Star Ruler Sep 20, 2010 $9.99N/A (N/A)100,000 .. 200,0000%00:00 (00:00)
121 Super Chibi Knight Jun 24, 2015 $4.99N/A (N/A)20,000 .. 50,0002.7%03:46 (01:15)
122 Rush for Berlin Gold Oct 29, 2009 $4.99N/A (N/A/76%)20,000 .. 50,0000%00:00 (00:00)
123 Western 1849 Reloaded Feb 10, 2017 $4.99N/A (N/A)0 .. 20,0000%00:00 (00:00)
124 Executive Assault Jul 17, 2015 $12.99N/A (N/A)50,000 .. 100,0000%00:00 (00:00)
125 Neon Shadow Aug 25, 2016 $4.99N/A (N/A)0 .. 20,0000%00:00 (00:00)
126 Gurgamoth Feb 16, 2016 $4.99N/A (N/A)50,000 .. 100,0002.9%03:44 (02:29)
127 ShootMania Storm Apr 10, 2013 $19.9953% (85%/76%)50,000 .. 100,0000%00:00 (00:00)
128 Slash or Die Jun 3, 2016 $2.99N/A (N/A)50,000 .. 100,0002.9%02:57 (03:55)
129 ENSLAVED: Odyssey to the West Premium Edition Oct 24, 2013 $19.9953% (85%/70%)200,000 .. 500,0000%00:00 (00:00)
130 CRYPTARK Jun 20, 2017 $14.9953% (85%/80%)50,000 .. 100,0000%00:00 (00:00)
131 Dustoff Heli Rescue Mar 6, 2015 $3.99N/A (N/A)20,000 .. 50,0000%00:00 (00:00)
132 Magnifico Dec 2, 2014 $4.99N/A (N/A)50,000 .. 100,0000%00:00 (00:00)
133 NOBUNAGA'S AMBITION: Souzou (Traditional Chinese version) Aug 2014 $24.99N/A (N/A)20,000 .. 50,0000%00:00 (00:00)
134 Concealed Intent Aug 2, 2016 $2.99N/A (N/A)0 .. 20,0000%00:00 (00:00)
135 Galaxy Admirals Jan 17, 2017 $1.99N/A (N/A)50,000 .. 100,0000%00:00 (00:00)
136 Child Of Ault Jan 24, 2017 $9.99N/A (N/A)0 .. 20,0000%00:00 (00:00)
137 Ace of Protectors Jun 27, 2016 $1.99N/A (N/A)0 .. 20,0002.38%02:52 (00:57)
138 The Men of Yoshiwara: Kikuya Oct 14, 2015 $29.99N/A (N/A)0 .. 20,0000%00:00 (00:00)
139 Conflict Desert Storm May 28, 2012 $6.99N/A (N/A/56%)20,000 .. 50,0004.17%00:06 (00:02)
140 Ballistic Tanks Sep 20, 2016 $4.99N/A (N/A)0 .. 20,0000%00:00 (00:00)
141 Yomi May 8, 2015 $14.99N/A (N/A)0 .. 20,0000%00:00 (00:00)
142 Decisive Campaigns: The Blitzkrieg from Warsaw to Paris Jan 22, 2015 $39.99N/A (N/A)0 .. 20,0000%00:00 (00:00)
143 Foresight Nov 28, 2014 $4.99N/A (N/A)0 .. 20,0001%00:16 (00:05)
144 Act of War: Direct Action Mar 12, 2008 $2.99N/A (N/A/82%)20,000 .. 50,0000%00:00 (00:00)
145 Advanced Tactics Gold Aug 15, 2014 $29.99N/A (N/A)0 .. 20,0000%00:00 (00:00)
146 Rooks Keep Dec 5, 2014 $7.99N/A (N/A)20,000 .. 50,0000%00:00 (00:00)
147 Fat Chicken Dec 4, 2014 $9.99N/A (N/A)0 .. 20,0000%00:00 (00:00)
148 Sudden Strike 2 Gold May 22, 2017 $5.99N/A (N/A)20,000 .. 50,0000%00:00 (00:00)
149 Last Knight: Rogue Rider Edition Oct 3, 2014 $7.99N/A (N/A)20,000 .. 50,0001.79%00:15 (00:05)
150 Battle Group 2 Jun 13, 2014 $7.99N/A (N/A)50,000 .. 100,0000%00:00 (00:00)
151 Vector Strain Dec 9, 2015 $4.99N/A (N/A)20,000 .. 50,0000%00:00 (00:00)
152 Bulletstorm: Full Clip Edition Apr 7, 2017 $39.99N/A (N/A/76%)20,000 .. 50,0008.7%04:19 (02:51)
153 NOBUNAGA'S AMBITION: Sphere of Influence Sep 1, 2015 $59.99N/A (N/A/70%)20,000 .. 50,0000%00:00 (00:00)
154 TY the Tasmanian Tiger 4 Sep 17, 2015 $5.99N/A (N/A)20,000 .. 50,0000%00:00 (00:00)
155 Crush Your Enemies Jul 13, 2016 $9.99N/A (N/A/63%)20,000 .. 50,0000%00:00 (00:00)
156 Legend (1994) Nov 10, 2015 $4.99N/A (N/A)0 .. 20,0000%00:00 (00:00)
157 Delta Force 2 Jun 18, 2009 $4.99N/A (N/A)20,000 .. 50,0005.88%00:01 (00:00)
158 Eador: Genesis Oct 14, 2013 $5.99N/A (N/A)50,000 .. 100,0000%00:00 (00:00)
159 Orbital Gear Aug 7, 2014 $9.99N/A (N/A/59%)200,000 .. 500,0001.18%04:40 (03:43)
160 Rack N Ruin Sep 1, 2015 $9.99N/A (N/A)20,000 .. 50,0000%00:00 (00:00)
161 PixelJunk Shooter Ultimate Oct 21, 2015 $9.99N/A (N/A)0 .. 20,0002.56%04:02 (01:20)
162 Disciples Sacred Lands Gold Oct 7, 2014 $7.99N/A (N/A)20,000 .. 50,0000%00:00 (00:00)
163 Crysis 2 - Maximum Edition Mar 22, 2011 $29.99N/A (N/A)100,000 .. 200,0000%00:00 (00:00)
164 htoL#NiQ: The Firefly Diary / htoL#NiQ-- May 18, 2016 $9.9945% (82%)20,000 .. 50,0000%00:00 (00:00)
165 Blue Effect VR Feb 8, 2017 $7.4945% (82%)0 .. 20,0000%00:00 (00:00)
166 Square Brawl Oct 22, 2015 $4.99N/A (N/A)0 .. 20,0000%00:00 (00:00)
167 Age of Wonders Oct 2010 $5.99N/A (N/A)100,000 .. 200,0000%00:00 (00:00)
168 Defense Zone Jul 14, 2014 $2.99N/A (N/A)0 .. 20,0000%00:00 (00:00)
169 Fleet Command Oct 26, 2006 $9.99N/A (N/A)50,000 .. 100,0000%00:00 (00:00)
170 After The End: The Harvest Jun 2, 2017 $4.99N/A (N/A)20,000 .. 50,0000%00:00 (00:00)
171 Afghanistan '11 Mar 23, 2017 $29.9945% (82%)0 .. 20,0000%00:00 (00:00)
172 rymdkapsel Jan 30, 2014 $7.99N/A (N/A/77%)0 .. 20,0000%00:00 (00:00)
173 Perimeter Apr 3, 2014 $3.99N/A (N/A/77%)50,000 .. 100,0001.05%01:49 (00:36)
174 In Verbis Virtus Apr 3, 2015 $4.99N/A (N/A)50,000 .. 100,0000%00:00 (00:00)
175 Jim Power -The Lost Dimension Sep 30, 2015 $4.99N/A (N/A)0 .. 20,0000%00:00 (00:00)
176 Shadow Ops: Red Mercury Jul 2, 2014 $6.99N/A (N/A/61%)20,000 .. 50,0000%00:00 (00:00)
177 Toadled Sep 22, 2016 $0.99N/A (N/A)50,000 .. 100,0000%00:00 (00:00)
178 Defense Zone 3 Ultra HD Dec 14, 2016 $2.99N/A (N/A)0 .. 20,0000%00:00 (00:00)
179 Anomaly 2 May 15, 2013 $14.99N/A (N/A/77%)200,000 .. 500,0000.57%01:22 (00:27)
180 Blade Arcus from Shining: Battle Arena Jul 28, 2016 $29.99N/A (N/A)0 .. 20,0000%00:00 (00:00)
181 Enemy Mind Jun 6, 2014 $9.99N/A (N/A)200,000 .. 500,0000%00:00 (00:00)
182 She Wants Me Dead May 13, 2016 $7.99N/A (N/A)0 .. 20,0000%00:00 (00:00)
183 Zeno Clash 2 Apr 30, 2013 $14.99N/A (N/A)200,000 .. 500,0000%00:00 (00:00)
184 Supreme Ruler 2020 Gold Jul 9, 2009 $9.99N/A (N/A/65%)50,000 .. 100,0000%00:00 (00:00)
185 Age of Gladiators Feb 25, 2016 $9.99N/A (N/A)20,000 .. 50,0002.7%01:35 (00:31)
186 Umihara Kawase Shun: Steam Edition Nov 24, 2015 $11.99N/A (N/A)0 .. 20,0000%00:00 (00:00)
187 Gatling Gears Aug 30, 2011 $9.99N/A (N/A)50,000 .. 100,0000%00:00 (00:00)
188 Making History: The Calm & the Storm Mar 13, 2007 $4.9940% (80%/70%)50,000 .. 100,0000%00:00 (00:00)
189 Ninjahtic Jul 6, 2015 $1.99N/A (N/A)0 .. 20,0000%00:00 (00:00)
190 Anomaly Warzone Earth Mobile Campaign Nov 6, 2013 $4.99N/A (N/A)100,000 .. 200,0000%00:00 (00:00)
191 Tiki Man Jun 5, 2015 $0.99N/A (N/A)20,000 .. 50,0000%00:00 (00:00)
192 ROD: Revolt Of Defense Aug 12, 2016 $0.99N/A (N/A)20,000 .. 50,0000%00:00 (00:00)
193 Interplanetary May 12, 2015 N/AN/A (N/A)100,000 .. 200,0001.89%02:11 (00:43)
194 Legends of Callasia Jun 10, 2016 FreeN/A (N/A)50,000 .. 100,0000%00:00 (00:00)
195 Trigger Runners Mar 3, 2016 $1.99N/A (N/A)0 .. 20,0000%00:00 (00:00)
196 Graviteam Tactics: Operation Star Feb 11, 2014 $29.99N/A (N/A)20,000 .. 50,0000%00:00 (00:00)
197 Weapon of Choice Sep 23, 2015 $4.99N/A (N/A)0 .. 20,0000%00:00 (00:00)
198 Dominions 3: The Awakening Sep 10, 2013 $19.99N/A (N/A/82%)20,000 .. 50,0000%00:00 (00:00)
199 Run Rabbit Run Mar 31, 2016 $3.99N/A (N/A)0 .. 20,0000%00:00 (00:00)
200 Monday Night Combat Jan 24, 2011 $4.99N/A (N/A/82%)200,000 .. 500,0000%00:00 (00:00)
201 Fate of the World Feb 28, 2011 $9.99N/A (N/A/70%)50,000 .. 100,0000%00:00 (00:00)
202 Gun Metal Jan 16, 2014 $2.99N/A (N/A)200,000 .. 500,0000.28%02:35 (00:51)
203 Bloodsports.TV Mar 30, 2015 $2.4940% (80%/69%)50,000 .. 100,0000%00:00 (00:00)
204 Demolition Inc. Sep 19, 2011 $5.99N/A (N/A)50,000 .. 100,0000%00:00 (00:00)
205 Hail to the King: Deathbat Oct 30, 2014 $5.99N/A (N/A)0 .. 20,0000%00:00 (00:00)
206 Locoland May 28, 2015 $4.99N/A (N/A)0 .. 20,0000%00:00 (00:00)
207 Fantasy Wars Aug 6, 2010 $4.99N/A (N/A/67%)50,000 .. 100,0001.72%06:22 (02:07)
208 Zombie Party Jun 10, 2016 $9.9938% (79%)100,000 .. 200,00032.35%04:56 (05:12)
209 Nuclear Dawn Sep 26, 2011 $9.99N/A (N/A/71%)200,000 .. 500,0000%00:00 (00:00)
210 Caster Mar 19, 2009 $1.99N/A (N/A)200,000 .. 500,0000%00:00 (00:00)
211 Protoshift Jan 15, 2016 $0.99N/A (N/A)0 .. 20,0000%00:00 (00:00)
212 Star Wolves 3: Civil War Mar 2, 2010 $4.99N/A (N/A)100,000 .. 200,0000%00:00 (00:00)
213 Ironcast Mar 26, 2015 $14.9938% (79%/75%)20,000 .. 50,0000%00:00 (00:00)
214 Fortified Feb 3, 2016 $14.99N/A (N/A)0 .. 20,0000%00:00 (00:00)
215 Starscape Nov 3, 2008 $7.99N/A (N/A)0 .. 20,0000%00:00 (00:00)
216 7,62 High Calibre Apr 30, 2014 $4.99N/A (N/A)50,000 .. 100,0000%00:00 (00:00)
217 Star Realms Mar 8, 2016 FreeN/A (N/A)100,000 .. 200,0000%00:00 (00:00)
218 Klang Sep 22, 2016 $14.99N/A (N/A/71%)0 .. 20,0000%00:00 (00:00)
219 TASTEE: Lethal Tactics May 10, 2016 $14.99N/A (N/A)20,000 .. 50,0000%00:00 (00:00)
220 Conquest of Elysium 3 Oct 24, 2012 $9.9938% (79%)20,000 .. 50,0000%00:00 (00:00)
221 David. Feb 16, 2015 $1.9938% (79%)50,000 .. 100,0000%00:00 (00:00)
222 Vietnam 65 Mar 5, 2015 $9.99N/A (N/A/81%)20,000 .. 50,0000%00:00 (00:00)
223 Cultures - 8th Wonder of the World Mar 26, 2015 $0.49N/A (N/A)50,000 .. 100,0001.41%16:13 (05:24)
224 Envoy Mar 17, 2016 $4.99N/A (N/A)50,000 .. 100,0000.49%03:02 (01:00)
225 Battle Mages: Sign of Darkness Jul 24, 2014 $4.99N/A (N/A)0 .. 20,0000%00:00 (00:00)
226 Hordelicious Jul 10, 2015 $3.9937% (78%)20,000 .. 50,0000%00:00 (00:00)
227 Heroes of Might & Magic V: Hammers of Fate Oct 10, 2008 $9.99N/A (N/A/66%)100,000 .. 200,0000%00:00 (00:00)
228 Battlezone May 11, 2017 $19.99N/A (N/A)0 .. 20,0000%00:00 (00:00)
229 TRON RUN/r Feb 16, 2016 $19.99N/A (N/A)0 .. 20,0000%00:00 (00:00)
230 Dead Rising 2: Off the Record Oct 11, 2011 $19.99N/A (N/A/66%)200,000 .. 500,0001.02%02:15 (01:29)
231 Othello Mar 19, 2015 $9.99N/A (N/A)0 .. 20,0000%00:00 (00:00)
232 Aeon Command Jul 3, 2014 $2.9937% (78%)20,000 .. 50,0000%00:00 (00:00)
233 The Legend of Dark Witch Dec 1, 2015 $4.99N/A (N/A)20,000 .. 50,0000%00:00 (00:00)
234 Curse of the Crescent Isle DX Aug 21, 2015 $4.99N/A (N/A)0 .. 20,0000%00:00 (00:00)
235 Mold on Pizza Sep 25, 2015 $5.99N/A (N/A)0 .. 20,0000%00:00 (00:00)
236 Making History II: The War of the World Aug 27, 2010 $14.99N/A (N/A/38%)20,000 .. 50,0000%00:00 (00:00)
237 Dangerous Waters Feb 7, 2006 $14.99N/A (N/A/82%)50,000 .. 100,0000%00:00 (00:00)
238 Deadly 30 Jan 8, 2014 $4.9937% (78%)100,000 .. 200,0001.91%02:17 (02:14)
239 Pharaonic Apr 28, 2016 $14.99N/A (N/A)20,000 .. 50,0000%00:00 (00:00)
240 Strike Suit Zero: Director's Cut Apr 8, 2014 $19.99N/A (N/A)20,000 .. 50,0000%00:00 (00:00)
241 Advent Rising Sep 14, 2006 $9.99N/A (N/A/70%)50,000 .. 100,0000%00:00 (00:00)
242 Mysterium: A Psychic Clue Game Jan 12, 2017 $9.99N/A (N/A)50,000 .. 100,0000%00:00 (00:00)
243 The Political Machine 2016 Feb 4, 2016 $9.99N/A (N/A)100,000 .. 200,0000%00:00 (00:00)
244 Warlords Battlecry III Jan 22, 2016 $9.99N/A (N/A/73%)0 .. 20,0000%00:00 (00:00)
245 King of Dragon Pass Jul 28, 2015 $11.99N/A (N/A)50,000 .. 100,0003.06%04:12 (04:12)
246 Spirits of Xanadu Mar 26, 2015 $4.9935% (77%)20,000 .. 50,0002.44%04:26 (01:28)
247 PAC-MAN and the Ghostly Adventures Oct 29, 2013 $19.99N/A (N/A)0 .. 20,0000%00:00 (00:00)
248 Tank Destroyer Mar 9, 2017 $0.5N/A (N/A)20,000 .. 50,0004.44%01:14 (00:33)
249 Sky Gamblers: Storm Raiders Jan 7, 2015 $9.99N/A (N/A)0 .. 20,0000%00:00 (00:00)
250 Warhammer 40,000: Armageddon Nov 26, 2014 $39.99N/A (N/A/68%)20,000 .. 50,0000%00:00 (00:00)
251 A.R.E.S. Extinction Agenda EX Oct 3, 2014 $9.99N/A (N/A)0 .. 20,0004.55%00:49 (00:16)
252 Bet On Soldier Dec 5, 2014 $7.99N/A (N/A)20,000 .. 50,0000%00:00 (00:00)
253 McDROID Sep 5, 2014 $9.99N/A (N/A)0 .. 20,0000%00:00 (00:00)
254 Painkiller Hell & Damnation Oct 31, 2012 $19.99N/A (N/A/64%)500,000 .. 1,000,0000.51%04:08 (01:22)
255 Riddled Corpses Jun 2, 2015 $7.99N/A (N/A)20,000 .. 50,0000%00:00 (00:00)
256 Rocketbirds 2 Evolution Jan 26, 2017 $9.99N/A (N/A)0 .. 20,0000%00:00 (00:00)
257 Civil War II Jul 3, 2014 $39.99N/A (N/A)0 .. 20,0000%00:00 (00:00)
258 BloodRayne Sep 14, 2006 $9.99N/A (N/A/65%)50,000 .. 100,0000%00:00 (00:00)
259 Livelock Aug 30, 2016 $9.99N/A (N/A/73%)20,000 .. 50,0002.78%00:01 (00:00)
260 Extravaganza Rising Jul 21, 2016 $5.99N/A (N/A)20,000 .. 50,0001.82%04:23 (01:27)
261 Velocity 2X Aug 19, 2015 $19.99N/A (N/A)50,000 .. 100,0000%00:00 (00:00)
262 Cashtronauts Aug 31, 2016 $2.99N/A (N/A)0 .. 20,0000%00:00 (00:00)
263 Heroes of Arca Feb 16, 2017 FreeN/A (N/A)0 .. 20,0000%00:00 (00:00)
264 Rocket Knight May 11, 2010 $14.99N/A (N/A/63%)0 .. 20,0000%00:00 (00:00)
265 Zombie Killtime Aug 4, 2015 $1.99N/A (N/A)0 .. 20,0000%00:00 (00:00)
266 WARSHIFT Oct 12, 2016 $12.99N/A (N/A)20,000 .. 50,0000%00:00 (00:00)
267 Olympia Rising Jul 23, 2015 $4.99N/A (N/A)20,000 .. 50,0000%00:00 (00:00)
268 Star Hammer: The Vanguard Prophecy Jun 4, 2015 $19.99N/A (N/A/69%)0 .. 20,0000%00:00 (00:00)
269 Corgi Warlock Dec 3, 2015 $1.99N/A (N/A)20,000 .. 50,0000%00:00 (00:00)
270 Starchaser: Priestess of the Night Sky Jul 24, 2015 $9.99N/A (N/A)0 .. 20,0000%00:00 (00:00)
271 Battle Time Sep 29, 2016 $0.99N/A (N/A)20,000 .. 50,0000%00:00 (00:00)
272 Monster Monpiece Mar 14, 2017 $19.99N/A (N/A)20,000 .. 50,0004.35%03:02 (01:00)
273 Chaser Jul 16, 2010 $4.99N/A (N/A/66%)100,000 .. 200,0000%00:00 (00:00)
274 Deadlings: Rotten Edition Nov 11, 2014 $3.99N/A (N/A)50,000 .. 100,0000%00:00 (00:00)
275 Z Jul 4, 2014 $6.99N/A (N/A)100,000 .. 200,0001.12%02:24 (01:35)
276 Zoo Empire Sep 3, 2015 $6.99N/A (N/A/59%)0 .. 20,0000%00:00 (00:00)
277 Fist Puncher Jun 21, 2013 $9.9931% (75%/73%)20,000 .. 50,0002.56%05:21 (01:47)
278 Ubersoldier II Mar 25, 2014 $9.99N/A (N/A/62%)20,000 .. 50,0000%00:00 (00:00)
279 CivCity: Rome Apr 6, 2007 $9.9931% (75%/67%)50,000 .. 100,0000%00:00 (00:00)
280 Master Reboot Oct 29, 2013 $14.99N/A (N/A/59%)50,000 .. 100,0000%00:00 (00:00)
281 The Superfluous May 19, 2017 $4.99N/A (N/A)0 .. 20,0000%00:00 (00:00)
282 Auralux: Constellations Jun 1, 2016 $9.99N/A (N/A)0 .. 20,0000%00:00 (00:00)
283 FIVE: Champions of Canaan Sep 27, 2016 $3.99N/A (N/A)0 .. 20,0000%00:00 (00:00)
284 Victory At Sea Aug 8, 2014 $7.49N/A (N/A)20,000 .. 50,0000%00:00 (00:00)
285 Commander: The Great War Jul 25, 2014 $29.99N/A (N/A)0 .. 20,0000%00:00 (00:00)
286 Platformines Mar 28, 2014 $9.99N/A (N/A/67%)100,000 .. 200,0000%00:00 (00:00)
287 Albino Lullaby: Episode 1 Sep 14, 2015 $9.99N/A (N/A)20,000 .. 50,0000%00:00 (00:00)
288 Smell Of Death Jul 4, 2016 $9.99N/A (N/A)0 .. 20,0000%00:00 (00:00)
289 Pick a Hero Jun 9, 2016 $0.99N/A (N/A)0 .. 20,0000%00:00 (00:00)
290 Perimeter: Emperor's Testament May 22, 2014 $3.99N/A (N/A/72%)20,000 .. 50,0000%00:00 (00:00)
291 Onechanbara Z2: Chaos Jun 2, 2016 $39.99N/A (N/A)0 .. 20,0000%00:00 (00:00)
292 Hot Tin Roof: The Cat That Wore A Fedora Feb 20, 2015 $14.99N/A (N/A/66%)100,000 .. 200,0000%00:00 (00:00)
293 Hunting Unlimited 2008 Jan 29, 2008 $9.99N/A (N/A)20,000 .. 50,0000%00:00 (00:00)
294 FEIST Jul 23, 2015 $9.9930% (74%)20,000 .. 50,0000%00:00 (00:00)
295 Divinity: Dragon Commander Aug 6, 2013 $39.99N/A (N/A)200,000 .. 500,0000%00:00 (00:00)
296 Phoning Home Feb 7, 2017 $4.99N/A (N/A/61%)20,000 .. 50,0002.78%06:33 (02:11)
297 Sid Meiers Ace Patrol Aug 27, 2013 $4.99N/A (N/A)500,000 .. 1,000,0000%00:00 (00:00)
298 LEGO Indiana Jones 2: The Adventure Continues Feb 18, 2010 $19.99N/A (N/A/66%)50,000 .. 100,0000%00:00 (00:00)
299 VRZ: Torment May 18, 2017 $5.4930% (74%)0 .. 20,0000%00:00 (00:00)
300 Supreme Ruler Ultimate Oct 17, 2014 $19.99N/A (N/A)20,000 .. 50,00012.5%00:59 (00:19)
301 Auro: A Monster-Bumping Adventure Apr 13, 2016 $6.99N/A (N/A)0 .. 20,0000%00:00 (00:00)
302 Making History: The Great War Jan 29, 2015 $29.99N/A (N/A)20,000 .. 50,0000%00:00 (00:00)
303 Codex of Victory Mar 16, 2017 $14.9930% (74%)0 .. 20,0000%00:00 (00:00)
304 Distant Worlds: Universe May 23, 2014 $59.99N/A (N/A/81%)50,000 .. 100,0000%00:00 (00:00)
305 Bubsy Two-Fur Dec 17, 2015 $4.99N/A (N/A)0 .. 20,0000%00:00 (00:00)
306 Banzai Escape Feb 29, 2016 $5.99N/A (N/A)0 .. 20,0000%00:00 (00:00)
307 Vampire of the Sands Jul 17, 2015 $4.99N/A (N/A)20,000 .. 50,0001.85%05:31 (01:50)
308 Death by Game Show Jan 22, 2016 $9.99N/A (N/A)20,000 .. 50,0000%00:00 (00:00)
309 Fatal Fight Jun 10, 2016 $2.99N/A (N/A)0 .. 20,0000%00:00 (00:00)
310 Warp Mar 21, 2012 $9.9928% (73%)20,000 .. 50,0000%00:00 (00:00)
311 Cast of the Seven Godsends - Redux Jul 20, 2015 $9.99N/A (N/A)20,000 .. 50,0001.54%02:28 (00:49)
312 Rex Rocket Aug 5, 2014 $4.99N/A (N/A)20,000 .. 50,0000%00:00 (00:00)
313 Pike and Shot : Campaigns Aug 13, 2015 $39.99N/A (N/A)0 .. 20,0000%00:00 (00:00)
314 King Arthur - The Role-playing Wargame Nov 24, 2009 $2.49N/A (N/A)200,000 .. 500,0000%00:00 (00:00)
315 Sengoku Jidai: Shadow of the Shogun May 19, 2016 $29.99N/A (N/A/80%)0 .. 20,0000%00:00 (00:00)
316 Viktor Jun 13, 2014 $7.99N/A (N/A)20,000 .. 50,0000%00:00 (00:00)
317 Rise & Shine Jan 13, 2017 $14.9928% (73%)50,000 .. 100,0000%00:00 (00:00)
318 TableTop Soccer Apr 22, 2016 $0.99N/A (N/A)0 .. 20,0000%00:00 (00:00)
319 The Aquatic Adventure of the Last Human Jan 19, 2016 $9.99N/A (N/A/76%)0 .. 20,0000%00:00 (00:00)
320 Lux Delux May 1, 2015 $9.99N/A (N/A)20,000 .. 50,0000%00:00 (00:00)
321 Cuban Missile Crisis Mar 25, 2015 $4.9927% (72%)20,000 .. 50,0000%00:00 (00:00)
322 Cross of the Dutchman Sep 10, 2015 $8.9927% (72%/59%)20,000 .. 50,0000%00:00 (00:00)
323 Retrovirus Jan 31, 2013 $9.99N/A (N/A/70%)20,000 .. 50,0000%00:00 (00:00)
324 Civil War: Battle of Petersburg Feb 8, 2017 $0.99N/A (N/A)20,000 .. 50,0000%00:00 (00:00)
325 Deadnaut Dec 8, 2014 $9.99N/A (N/A)20,000 .. 50,0000%00:00 (00:00)
326 Battle Fleet 2 Nov 20, 2014 $14.99N/A (N/A)20,000 .. 50,0000%00:00 (00:00)
327 Panzer Tactics HD May 22, 2014 $9.99N/A (N/A/69%)20,000 .. 50,0000%00:00 (00:00)
328 Wyv and Keep: The Temple of the Lost Idol Aug 8, 2014 $14.99N/A (N/A)20,000 .. 50,0000%00:00 (00:00)
329 Lost Planet: Extreme Condition Jun 26, 2007 $14.99N/A (N/A/66%)200,000 .. 500,0000%00:00 (00:00)
330 GEARGUNS Tank offensive Sep 20, 2016 $1.5127% (72%)20,000 .. 50,0000%00:00 (00:00)
331 Airship Dragoon Aug 26, 2014 $9.99N/A (N/A)0 .. 20,0000%00:00 (00:00)
332 Gold Rush! Anniversary Nov 7, 2014 $5.99N/A (N/A)100,000 .. 200,0002.86%00:55 (01:15)
333 Alarameth TD Jun 23, 2015 $4.99N/A (N/A)0 .. 20,0000%00:00 (00:00)
334 There Came an Echo Feb 24, 2015 $14.99N/A (N/A/58%)20,000 .. 50,0000%00:00 (00:00)
335 rooMaze Mar 3, 2017 $1.99N/A (N/A)20,000 .. 50,0000%00:00 (00:00)
336 Wildlife Park 2 - Crazy Zoo Jul 17, 2014 $3.99N/A (N/A)20,000 .. 50,0000%00:00 (00:00)
337 A.R.E.S.: Extinction Agenda Jan 19, 2011 $4.99N/A (N/A/68%)100,000 .. 200,0000%00:00 (00:00)
338 Jagged Alliance 2 - Wildfire Nov 16, 2012 $6.99N/A (N/A)200,000 .. 500,0004.31%06:57 (07:09)
339 REDCON Apr 22, 2016 $5.99N/A (N/A)20,000 .. 50,0000%00:00 (00:00)
340 Space Colony: Steam Edition Apr 30, 2015 $14.99N/A (N/A/74%)20,000 .. 50,0000%00:00 (00:00)
341 Zombie Camp Jul 31, 2016 $1.99N/A (N/A)0 .. 20,0000%00:00 (00:00)
342 The Last Federation Apr 18, 2014 $19.9926% (71%/72%)100,000 .. 200,0000%00:00 (00:00)
343 Tom Clancy's EndWar Feb 25, 2009 $9.99N/A (N/A/68%)50,000 .. 100,0000%00:00 (00:00)
344 Pongo May 11, 2015 $0.99N/A (N/A)50,000 .. 100,0002.13%00:31 (00:20)
345 Smithy Jun 3, 2016 $3.99N/A (N/A)50,000 .. 100,0000.62%02:23 (00:47)
346 Elven Legacy Apr 7, 2009 $4.99N/A (N/A/71%)50,000 .. 100,0000%00:00 (00:00)
347 Elliot Quest Nov 10, 2014 $9.99N/A (N/A)20,000 .. 50,0000%00:00 (00:00)
348 Space Food Truck Mar 25, 2016 $9.99N/A (N/A)0 .. 20,0000%00:00 (00:00)
349 Incandescent Jun 30, 2015 $0.49N/A (N/A)20,000 .. 50,0000.8%01:32 (00:30)
350 Zombie City Defense 2 Aug 19, 2016 $9.99N/A (N/A)0 .. 20,0000%00:00 (00:00)
351 Crazy Forest Jul 6, 2016 $4.99N/A (N/A)100,000 .. 200,0001.18%01:53 (01:15)
352 Disney Planes Oct 6, 2014 $19.99N/A (N/A)0 .. 20,0000%00:00 (00:00)
353 Collapse Apr 11, 2014 $19.9924% (70%)50,000 .. 100,0000%00:00 (00:00)
354 Little King's Story Aug 5, 2016 $19.99N/A (N/A/62%)0 .. 20,0000%00:00 (00:00)
355 BitMaster Oct 12, 2016 $2.99N/A (N/A)100,000 .. 200,0000%00:00 (00:00)
356 Warrior Kings Apr 24, 2014 $9.99N/A (N/A/73%)0 .. 20,0000%00:00 (00:00)
357 Guns n Zombies Oct 30, 2014 $7.99N/A (N/A)100,000 .. 200,0000%00:00 (00:00)
358 Heaven Forest NIGHTS Mar 14, 2017 $0.69N/A (N/A)100,000 .. 200,0001.79%02:13 (01:08)
359 Quick Slick Deadly Sep 21, 2015 $0.49N/A (N/A)20,000 .. 50,0000%00:00 (00:00)
360 YAIBA: NINJA GAIDEN Z Mar 21, 2014 $29.99N/A (N/A/49%)20,000 .. 50,0000%00:00 (00:00)
361 The Nightmare Cooperative Jul 16, 2014 $4.99N/A (N/A)50,000 .. 100,0000%00:00 (00:00)
362 ManaCollect Apr 17, 2015 $6.99N/A (N/A)0 .. 20,0000%00:00 (00:00)
363 Scourge of War: Waterloo Nov 19, 2015 $49.9923% (69%)0 .. 20,0000%00:00 (00:00)
364 Spud's Quest Jul 31, 2014 $7.99N/A (N/A)0 .. 20,0000%00:00 (00:00)
365 The Living Dungeon Nov 2, 2015 $12.99N/A (N/A)0 .. 20,0000%00:00 (00:00)
366 Sorcerer King Jul 16, 2015 $9.9922% (68%/75%)20,000 .. 50,0000%00:00 (00:00)
367 Revolution Under Siege Gold Jul 2, 2015 $24.99N/A (N/A)0 .. 20,0000%00:00 (00:00)
368 Fair Strike Apr 23, 2015 $3.99N/A (N/A/56%)0 .. 20,0000%00:00 (00:00)
369 Kill The Plumber Dec 31, 2015 $4.99N/A (N/A)0 .. 20,0000%00:00 (00:00)
370 FIVE: Guardians of David Nov 24, 2015 $9.9922% (68%/66%)20,000 .. 50,0000%00:00 (00:00)
371 Theatre of War 2: Africa 1943 Jul 9, 2010 $4.99N/A (N/A/63%)100,000 .. 200,0000%00:00 (00:00)
372 The Hive Aug 25, 2016 $9.99N/A (N/A)20,000 .. 50,0000%00:00 (00:00)
373 Brigade E5: New Jagged Union Apr 30, 2014 $3.99N/A (N/A/41%)20,000 .. 50,0000%00:00 (00:00)
374 Strategy & Tactics: Wargame Collection Apr 22, 2016 $9.99N/A (N/A)20,000 .. 50,00011.83%04:31 (04:26)
375 RISK: Factions Mar 8, 2011 $9.99N/A (N/A/77%)50,000 .. 100,0000%00:00 (00:00)
376 Pigmentone Jul 8, 2016 $1.99N/A (N/A)0 .. 20,00015.38%02:53 (01:55)
377 Stonerid Aug 15, 2014 $4.99N/A (N/A)50,000 .. 100,0000%00:00 (00:00)
378 Toren May 11, 2015 $9.9922% (68%/57%)50,000 .. 100,0002.2%00:08 (00:05)
379 Survivor Squad: Gauntlets Nov 16, 2015 $4.99N/A (N/A)20,000 .. 50,0000%00:00 (00:00)
380 Chainsaw Warrior Oct 7, 2013 $4.99N/A (N/A)50,000 .. 100,0000%00:00 (00:00)
381 Toy Odyssey: The Lost and Found Sep 20, 2016 $14.9921% (67%/66%)100,000 .. 200,0001.32%00:01 (00:00)
382 Nomad Fleet Apr 19, 2016 $9.99N/A (N/A)0 .. 20,00013.33%03:06 (02:03)
383 Alea Jacta Est Nov 4, 2014 $24.99N/A (N/A)0 .. 20,0000%00:00 (00:00)
384 Sengoku Sep 15, 2011 $9.99N/A (N/A/70%)100,000 .. 200,0000%00:00 (00:00)
385 Royal Defense Nov 10, 2014 $4.99N/A (N/A)50,000 .. 100,0005.1%04:11 (05:38)
386 Scourge: Outbreak Apr 2, 2014 $7.99N/A (N/A)100,000 .. 200,0000%00:00 (00:00)
387 Zafehouse: Diaries Sep 6, 2013 $1.9921% (67%)50,000 .. 100,0000%00:00 (00:00)
388 Men of War: Condemned Heroes Apr 12, 2012 $7.99N/A (N/A/57%)100,000 .. 200,0000%00:00 (00:00)
389 Disney Pirates of the Caribbean: At Worlds End Oct 6, 2014 $19.99N/A (N/A)0 .. 20,0000%00:00 (00:00)
390 Sky To Fly: Faster Than Wind Mar 25, 2016 $3.99N/A (N/A)0 .. 20,0000%00:00 (00:00)
391 Marauder Apr 4, 2014 $9.99N/A (N/A)20,000 .. 50,0000%00:00 (00:00)
392 Assassins Creed Chronicles: India Jan 12, 2016 $9.9919% (66%)20,000 .. 50,0000%00:00 (00:00)
393 Platypus II Aug 15, 2014 $6.99N/A (N/A)200,000 .. 500,0000.31%04:29 (01:29)
394 8-Bit Commando Jun 2, 2014 $2.99N/A (N/A)50,000 .. 100,0000%00:00 (00:00)
395 7th Legion Oct 23, 2014 $6.99N/A (N/A)0 .. 20,0000%00:00 (00:00)
396 Mad Combat Marines Jul 13, 2016 $0.99N/A (N/A)20,000 .. 50,0000%00:00 (00:00)
397 1849 May 8, 2014 $14.99N/A (N/A)20,000 .. 50,0000%00:00 (00:00)
398 Bedlam Oct 13, 2015 $12.9919% (66%/54%)100,000 .. 200,0002.22%02:35 (01:43)
399 Infinity Runner Jul 14, 2014 $6.99N/A (N/A/56%)0 .. 20,0000%00:00 (00:00)
400 Commander Cool 2 Dec 17, 2015 $2.99N/A (N/A)20,000 .. 50,0000%00:00 (00:00)
401 UnSummoning: the Spectral Horde Dec 21, 2015 $3.99N/A (N/A)0 .. 20,0000%00:00 (00:00)
402 Spirit of War Mar 12, 2015 $9.99N/A (N/A)20,000 .. 50,0000%00:00 (00:00)
403 Fallen Enchantress Oct 23, 2012 $9.9919% (65%/78%)100,000 .. 200,0000%00:00 (00:00)
404 Hunters Of The Dead Sep 4, 2014 $4.99N/A (N/A)20,000 .. 50,0000%00:00 (00:00)
405 Kaiju-A-GoGo Apr 23, 2015 $9.99N/A (N/A)20,000 .. 50,0000%00:00 (00:00)
406 Zoo Rampage Jul 9, 2014 $3.99N/A (N/A)0 .. 20,0000%00:00 (00:00)
407 Malebolgia May 6, 2015 $12.99N/A (N/A)0 .. 20,0000%00:00 (00:00)
408 Ground Breakers Jun 15, 2016 $4.99N/A (N/A)0 .. 20,0000%00:00 (00:00)
409 Theatre of War 2: Kursk 1943 Jul 9, 2010 $4.99N/A (N/A)50,000 .. 100,0000%00:00 (00:00)
410 My Super Tower 2 Jan 27, 2017 $0.99N/A (N/A)0 .. 20,0004.35%00:01 (00:00)
411 Frozen Synapse Prime Nov 14, 2014 $24.99N/A (N/A/83%)100,000 .. 200,0000%00:00 (00:00)
412 The Seven Years War (1756-1763) Oct 30, 2015 $7.99N/A (N/A)0 .. 20,0000%00:00 (00:00)
413 Zombie Tycoon 2: Brainhov's Revenge Dec 9, 2013 $4.99N/A (N/A)50,000 .. 100,0000%00:00 (00:00)
414 Devil's Dare Oct 21, 2014 $12.99N/A (N/A)20,000 .. 50,0000%00:00 (00:00)
415 March of the Eagles Feb 18, 2013 $19.9919% (65%/71%)50,000 .. 100,0000%00:00 (00:00)
416 Link Apr 22, 2016 $4.99N/A (N/A)0 .. 20,0000%00:00 (00:00)
417 Jagged Alliance: Crossfire Aug 24, 2012 $14.9918% (64%/63%)100,000 .. 200,0000%00:00 (00:00)
418 Urban Pirate Jun 17, 2016 $6.99N/A (N/A)0 .. 20,0000%00:00 (00:00)
419 Rise: Battle Lines Nov 17, 2015 $5.99N/A (N/A)0 .. 20,0005.41%02:53 (01:55)
420 Warlock 2: The Exiled Apr 10, 2014 $19.9918% (64%/73%)50,000 .. 100,0000%00:00 (00:00)
421 SPACECOM Sep 17, 2014 $9.99N/A (N/A/68%)100,000 .. 200,0000%00:00 (00:00)
422 Revenge of Roger Rouge Apr 22, 2016 $0.99N/A (N/A)20,000 .. 50,0004.58%04:47 (04:34)
423 A Game of Dwarves Oct 23, 2012 $9.99N/A (N/A/60%)100,000 .. 200,0000%00:00 (00:00)
424 Double Dragon IV Jan 30, 2017 $6.99N/A (N/A/50%)0 .. 20,0000%00:00 (00:00)
425 Battle Worlds: Kronos Nov 4, 2013 $19.99N/A (N/A/71%)20,000 .. 50,0000%00:00 (00:00)
426 Beasts Battle Jun 15, 2016 $1.99N/A (N/A)0 .. 20,0000%00:00 (00:00)
427 Sorcerer King: Rivals Sep 22, 2016 $14.99N/A (N/A)50,000 .. 100,0000%00:00 (00:00)
428 Pixel Boy and the Ever Expanding Dungeon May 30, 2014 $0.99N/A (N/A)20,000 .. 50,0000%00:00 (00:00)
429 War, the Game Jan 12, 2015 $6.99N/A (N/A/65%)20,000 .. 50,0000%00:00 (00:00)
430 Will Fight for Food: Super Actual Sellout: Game of the Hour Apr 22, 2015 $5.99N/A (N/A)20,000 .. 50,0000%00:00 (00:00)
431 Desert Ashes Nov 10, 2014 $4.99N/A (N/A)20,000 .. 50,0000%00:00 (00:00)
432 Bombshell Jan 29, 2016 $34.9917% (63%)0 .. 20,0000%00:00 (00:00)
433 Port Royale 2 Jun 16, 2009 $4.99N/A (N/A/75%)50,000 .. 100,0000%00:00 (00:00)
434 Spice Road Apr 24, 2014 $19.99N/A (N/A)0 .. 20,0000%00:00 (00:00)
435 Hyperspace Pinball Sep 30, 2015 $2.99N/A (N/A)0 .. 20,0000%00:00 (00:00)
436 Disney Epic Mickey 2: The Power of Two Oct 6, 2014 $19.99N/A (N/A)20,000 .. 50,0000%00:00 (00:00)
437 Battleplan: American Civil War Jul 4, 2014 $9.99N/A (N/A/66%)100,000 .. 200,0000.38%00:01 (00:00)
438 4089: Ghost Within Jan 9, 2015 $5.99N/A (N/A)0 .. 20,0000%00:00 (00:00)
439 Supreme Ruler: Cold War Jul 29, 2011 $9.99N/A (N/A/63%)20,000 .. 50,0000%00:00 (00:00)
440 Goblin Defenders: Steeln Wood Nov 23, 2015 $2.99N/A (N/A)20,000 .. 50,0000%00:00 (00:00)
441 The Few Jun 18, 2014 $7.99N/A (N/A)20,000 .. 50,0000%00:00 (00:00)
442 BattleLore: Command Mar 31, 2015 $6.9916% (62%)0 .. 20,0000%00:00 (00:00)
443 Freight Tycoon Inc. Apr 3, 2014 $4.99N/A (N/A)20,000 .. 50,0005%09:46 (03:15)
444 Quarantine May 24, 2017 $9.99N/A (N/A)0 .. 20,0000%00:00 (00:00)
445 Purgatory Jun 22, 2016 $0.99N/A (N/A)200,000 .. 500,0001.59%03:24 (04:15)
446 Men of War: Vietnam Sep 8, 2011 $7.99N/A (N/A/68%)200,000 .. 500,0001.61%00:27 (00:09)
447 To End All Wars Aug 29, 2014 $39.9915% (61%/71%)0 .. 20,0000%00:00 (00:00)
448 Flashback Oct 1, 2013 $9.99N/A (N/A)20,000 .. 50,0000%00:00 (00:00)
449 Call of Duty: Black Ops - Mac Edition Sep 27, 2012 $19.99N/A (N/A)50,000 .. 100,0000%00:00 (00:00)
450 E.T. Armies Mar 3, 2016 $14.99N/A (N/A/54%)20,000 .. 50,0000%00:00 (00:00)
451 Legions of Steel Jul 16, 2015 $19.99N/A (N/A/64%)0 .. 20,0000%00:00 (00:00)
452 Life in Bunker Feb 25, 2016 $15.99N/A (N/A)0 .. 20,0000%00:00 (00:00)
453 Skyshine's BEDLAM Sep 16, 2015 $19.9913% (60%/67%)20,000 .. 50,0000%00:00 (00:00)
454 Close Combat - Panthers in the Fog May 14, 2015 $39.99N/A (N/A)0 .. 20,0000%00:00 (00:00)
455 Overruled! Sep 15, 2015 $12.99N/A (N/A)20,000 .. 50,0000%00:00 (00:00)
456 DreamBreak Jul 21, 2016 $6.99N/A (N/A/46%)0 .. 20,0004.35%03:06 (01:02)
457 Woolfe - The Red Hood Diaries Mar 17, 2015 $9.99N/A (N/A/55%)50,000 .. 100,0000%00:00 (00:00)
458 Patrician IV - Steam Special Edition Sep 17, 2010 $14.9913% (60%/66%)200,000 .. 500,0000%00:00 (00:00)
459 7 Grand Steps: What Ancients Begat Jun 7, 2013 $19.99N/A (N/A)100,000 .. 200,0000%00:00 (00:00)
460 Hybrid Wars Sep 29, 2016 $17.99N/A (N/A/54%)0 .. 20,0000%00:00 (00:00)
461 Defend Your Crypt Jul 21, 2016 $2.99N/A (N/A)0 .. 20,0000%00:00 (00:00)
462 Disciples III - Renaissance Steam Special Edition Jul 16, 2010 $14.99N/A (N/A/56%)200,000 .. 500,0000%00:00 (00:00)
463 Code of Princess Apr 14, 2016 $14.9913% (60%/53%)0 .. 20,0000%00:00 (00:00)
464 Stay Dead Evolution Feb 4, 2015 $5.99N/A (N/A)20,000 .. 50,0000%00:00 (00:00)
465 Grim Seventh Jan 20, 2017 FreeN/A (N/A)0 .. 20,0000%00:00 (00:00)
466 Dawn of Andromeda May 4, 2017 $29.9913% (60%/70%)0 .. 20,0000%00:00 (00:00)
467 Antisquad May 22, 2014 $5.99N/A (N/A)50,000 .. 100,0000%00:00 (00:00)
468 Super Helmets on Fire DX Ultra Edition Plus Alpha Feb 15, 2016 $0.99N/A (N/A)0 .. 20,0000%00:00 (00:00)
469 Merchants of Kaidan Nov 10, 2014 $14.99N/A (N/A)100,000 .. 200,0000%00:00 (00:00)
470 Armada 2526 Gold Edition Feb 28, 2013 $19.99N/A (N/A/66%)50,000 .. 100,0000%00:00 (00:00)
471 Prospekt Feb 18, 2016 $9.99N/A (N/A)20,000 .. 50,0007.69%00:20 (00:06)
472 Ninjahtic Mind Tricks Jul 16, 2015 $1.99N/A (N/A)0 .. 20,0000%00:00 (00:00)
473 Ceres Oct 16, 2015 $19.99N/A (N/A/74%)0 .. 20,0000%00:00 (00:00)
474 Unearthed: Trail of Ibn Battuta - Episode 1 - Gold Edition Jan 3, 2014 $4.99N/A (N/A)20,000 .. 50,0000%00:00 (00:00)
475 Prophour23 Oct 22, 2014 $9.99N/A (N/A)20,000 .. 50,0000%00:00 (00:00)
476 Check vs Mate Aug 16, 2012 $19.99N/A (N/A/69%)0 .. 20,0000%00:00 (00:00)
477 Cemetery Warrior 3 Feb 3, 2017 $0.99N/A (N/A)50,000 .. 100,0000%00:00 (00:00)
478 Colonial Conquest Jul 28, 2015 $9.99N/A (N/A)0 .. 20,0000%00:00 (00:00)
479 Sir! I'd Like To Report A Bug! Oct 19, 2015 $1.99N/A (N/A)0 .. 20,0000%00:00 (00:00)
480 Wanderlust Adventures Aug 10, 2015 $9.99N/A (N/A)20,000 .. 50,0000%00:00 (00:00)
481 VR Journey Dec 15, 2016 $0.5N/A (N/A)20,000 .. 50,0000.79%00:04 (00:01)
482 Adventure World Aug 2, 2016 $4.99N/A (N/A)0 .. 20,0000%00:00 (00:00)
483 Heavy Fire: Afghanistan Aug 15, 2014 $2.99N/A (N/A)20,000 .. 50,0000%00:00 (00:00)
484 Assault on Arnhem Mar 11, 2016 $9.99N/A (N/A)0 .. 20,0000%00:00 (00:00)
485 Gates of Horizon Dec 18, 2014 $9.99N/A (N/A)0 .. 20,0000%00:00 (00:00)
486 Rise of Venice Sep 27, 2013 $19.99N/A (N/A/66%)50,000 .. 100,0002.86%33:26 (11:08)
487 Woodle Tree 2: Worlds Sep 16, 2016 $3.99N/A (N/A)20,000 .. 50,0001.92%00:01 (00:00)
488 Delve Deeper Sep 24, 2010 $4.9910% (56%)50,000 .. 100,0000%00:00 (00:00)
489 Defence to death May 11, 2017 $1.99N/A (N/A)50,000 .. 100,0000%00:00 (00:00)
490 Gnumz: Masters of Defense Dec 21, 2015 $4.99N/A (N/A)20,000 .. 50,0001.3%02:45 (02:11)
491 Horizon Feb 6, 2014 $29.99N/A (N/A)50,000 .. 100,0000%00:00 (00:00)
492 Abalone Apr 23, 2014 $4.99N/A (N/A)0 .. 20,0000%00:00 (00:00)
493 reconquest Dec 16, 2016 $11.9910% (56%)0 .. 20,0000%00:00 (00:00)
494 Pain Train Jan 11, 2017 $0.99N/A (N/A)20,000 .. 50,0000%00:00 (00:00)
495 BC Kings Jun 16, 2009 $4.99N/A (N/A)20,000 .. 50,0000%00:00 (00:00)
496 Wickland Feb 6, 2015 $0.99N/A (N/A)100,000 .. 200,0000%00:00 (00:00)
497 Nightside Aug 6, 2015 $9.99N/A (N/A)20,000 .. 50,0000%00:00 (00:00)
498 Tic-Toc-Tower Sep 28, 2015 $2.99N/A (N/A)0 .. 20,0000%00:00 (00:00)
499 The Stalin Subway Sep 19, 2014 $3.999% (53%)20,000 .. 50,0000%00:00 (00:00)
500 Royal Bounty HD Aug 10, 2015 $2.99N/A (N/A)0 .. 20,0000%00:00 (00:00)
501 Armada 2526 Apr 8, 2011 $14.99N/A (N/A/66%)20,000 .. 50,0000%00:00 (00:00)
502 Urja Jan 9, 2015 $9.99N/A (N/A)20,000 .. 50,0000%00:00 (00:00)
503 Smugglers 5 Apr 11, 2014 $9.99N/A (N/A)20,000 .. 50,0000%00:00 (00:00)
504 The Settlers 7: Paths to a Kingdom: Deluxe Gold Edition Mar 10, 2011 $19.99N/A (N/A/79%)100,000 .. 200,0000%00:00 (00:00)
505 Aegis Oct 6, 2016 $2.99N/A (N/A)0 .. 20,0000%00:00 (00:00)
506 RESCUE 2: Everyday Heroes Jun 3, 2015 $19.99N/A (N/A)20,000 .. 50,0000%00:00 (00:00)
507 Story Of the Survivor Feb 16, 2016 $4.99N/A (N/A)50,000 .. 100,0000%00:00 (00:00)
508 Marvel: Ultimate Alliance 2 Jul 26, 2016 $39.99N/A (N/A)0 .. 20,0000%00:00 (00:00)
509 The Campaign Series: Fall Weiss May 30, 2014 $14.99N/A (N/A)20,000 .. 50,0002%00:01 (00:00)
510 Scapeland Mar 31, 2016 $3.99N/A (N/A)0 .. 20,0000%00:00 (00:00)
511 Biodrone Battle Jul 16, 2015 $1.99N/A (N/A)100,000 .. 200,0000%00:00 (00:00)
512 MDK2 HD Jul 30, 2012 $14.99N/A (N/A/73%)0 .. 20,0000%00:00 (00:00)
513 Meridian: New World Sep 26, 2014 $6.99N/A (N/A/43%)50,000 .. 100,0000%00:00 (00:00)
514 Crusaders: Thy Kingdom Come Oct 8, 2009 $9.99N/A (N/A)20,000 .. 50,0000%00:00 (00:00)
515 MinosMaze - The Minotaur's Labyrinth May 1, 2017 $4.99N/A (N/A)0 .. 20,0000%00:00 (00:00)
516 PeriAreion Feb 19, 2015 $5.99N/A (N/A)0 .. 20,0000%00:00 (00:00)
517 Dusty Revenge:Co-Op Edition Feb 17, 2014 $14.99N/A (N/A)100,000 .. 200,0001.27%00:03 (00:01)
518 Guncraft Aug 9, 2013 $14.99N/A (N/A/73%)100,000 .. 200,0000%00:00 (00:00)
519 Albedo: Eyes from Outer Space Apr 10, 2015 $14.997% (50%/66%)50,000 .. 100,0000%00:00 (00:00)
520 Odd||Even Apr 6, 2016 $0.99N/A (N/A)20,000 .. 50,0000%00:00 (00:00)
521 No Pineapple Left Behind Feb 18, 2016 $9.99N/A (N/A/59%)0 .. 20,0000%00:00 (00:00)
522 Megamagic: Wizards of the Neon Age Apr 20, 2016 $9.99N/A (N/A/67%)20,000 .. 50,0003.13%00:52 (00:34)
523 Weather Lord: The Successor's Path May 7, 2015 $4.99N/A (N/A)0 .. 20,0000%00:00 (00:00)
524 Kidnapped Aug 4, 2015 $2.99N/A (N/A)100,000 .. 200,0000%00:00 (00:00)
525 HitBox Jan 30, 2017 Free7% (50%)0 .. 20,0000%00:00 (00:00)
526 Toy Soldiers: War Chest Aug 12, 2015 $3.747% (50%/60%)0 .. 20,0000%00:00 (00:00)
527 Z Steel Soldiers Aug 1, 2014 $12.99N/A (N/A)50,000 .. 100,0000%00:00 (00:00)
528 Warhammer: Arcane Magic Mar 3, 2016 $3.997% (49%)0 .. 20,0000%00:00 (00:00)
529 Aggression: Europe Under Fire Apr 9, 2014 $9.99N/A (N/A)0 .. 20,0000%00:00 (00:00)
530 Synonymy Mar 5, 2015 $1.99N/A (N/A)0 .. 20,0000%00:00 (00:00)
531 Star Traders: 4X Empires Dec 16, 2014 $9.99N/A (N/A)0 .. 20,0000%00:00 (00:00)
532 Meridian: Squad 22 Aug 11, 2016 $14.99N/A (N/A)0 .. 20,0000%00:00 (00:00)
533 Rubber and Lead Sep 4, 2015 $4.99N/A (N/A)20,000 .. 50,0000%00:00 (00:00)
534 Hero Generations Apr 10, 2015 $5.99N/A (N/A)20,000 .. 50,0000%00:00 (00:00)
535 Crossfire: Dungeons May 21, 2015 $3.99N/A (N/A)0 .. 20,0000%00:00 (00:00)
536 ALONE IN SPACE Feb 22, 2016 $9.996% (47%)0 .. 20,0000%00:00 (00:00)
537 Chronostorm: Siberian Border Nov 20, 2015 $0.99N/A (N/A)0 .. 20,0000%00:00 (00:00)
538 Hell Nov 13, 2014 $29.99N/A (N/A)0 .. 20,0000%00:00 (00:00)
539 Disposable Heroes Mar 22, 2016 $4.99N/A (N/A)0 .. 20,0002.56%02:04 (00:41)
540 Blasting Agent: Ultimate Edition Aug 17, 2016 $2.99N/A (N/A)0 .. 20,0004.76%04:49 (01:36)
541 Commander: Conquest of the Americas Jul 30, 2010 $9.99N/A (N/A/68%)50,000 .. 100,0000%00:00 (00:00)
542 The Stalin Subway: Red Veil Oct 24, 2014 $2.99N/A (N/A)20,000 .. 50,0000%00:00 (00:00)
543 Magic Quest May 6, 2016 $1.99N/A (N/A)50,000 .. 100,0000%00:00 (00:00)
544 Castle Werewolf 3D Feb 7, 2017 $2.99N/A (N/A)50,000 .. 100,00011.83%04:26 (04:34)
545 World War 2: Time of Wrath Jun 6, 2014 $4.99N/A (N/A)20,000 .. 50,0000%00:00 (00:00)
546 Carrier Command: Gaea Mission Sep 28, 2012 $32.99N/A (N/A/60%)200,000 .. 500,0000%00:00 (00:00)
547 Redemption: Saints And Sinners Nov 18, 2016 $0.99N/A (N/A)50,000 .. 100,0000%00:00 (00:00)
548 The Bluecoats: North vs South Feb 2, 2015 $4.99N/A (N/A)20,000 .. 50,0000%00:00 (00:00)
549 Vendetta - Curse of Raven's Cry Nov 20, 2015 $29.99N/A (N/A)0 .. 20,0000%00:00 (00:00)
550 DUNGEONS - Steam Special Edition Feb 10, 2011 $9.99N/A (N/A/65%)200,000 .. 500,0000%00:00 (00:00)
551 Impire Feb 14, 2013 $19.99N/A (N/A/45%)100,000 .. 200,0000%00:00 (00:00)
552 Skyward Collapse May 23, 2013 $4.99N/A (N/A/64%)100,000 .. 200,0000%00:00 (00:00)
553 Island Defense Jul 23, 2015 $1.99N/A (N/A)50,000 .. 100,0000%00:00 (00:00)
554 Pride of Nations Jun 7, 2011 $19.99N/A (N/A/70%)20,000 .. 50,0000%00:00 (00:00)
555 Sword of the Stars II: Enhanced Edition Nov 30, 2012 $19.99N/A (N/A/65%)100,000 .. 200,0000%00:00 (00:00)
556 Devils & Demons Oct 6, 2015 $9.99N/A (N/A)20,000 .. 50,0000%00:00 (00:00)
557 Samudai Feb 9, 2015 $2.99N/A (N/A)20,000 .. 50,0000%00:00 (00:00)
558 Nux Aug 15, 2014 $6.99N/A (N/A)200,000 .. 500,0000.28%04:03 (01:21)
559 Burstfire Sep 24, 2015 N/AN/A (N/A)50,000 .. 100,0000%00:00 (00:00)
560 Heavy Fire: Shattered Spear Oct 23, 2015 $3.99N/A (N/A)0 .. 20,0000%00:00 (00:00)
561 The Entente Gold Jun 16, 2014 $1.99N/A (N/A)50,000 .. 100,0000%00:00 (00:00)
562 Rulers of Nations Jul 16, 2014 $19.99N/A (N/A/63%)0 .. 20,0000%00:00 (00:00)
563 Lost in Paradise Aug 20, 2015 $2.99N/A (N/A)20,000 .. 50,0000%00:00 (00:00)
564 Hydraulic Empire Jul 31, 2015 $7.99N/A (N/A)0 .. 20,0000%00:00 (00:00)
565 Infection: Humanity's Last Gasp May 26, 2016 $9.99N/A (N/A)0 .. 20,0000%00:00 (00:00)
566 Control Craft 2 Feb 15, 2016 $2.99N/A (N/A)0 .. 20,0008.11%03:29 (02:57)
567 Strategic War in Europe Mar 21, 2014 $14.99N/A (N/A)20,000 .. 50,0000%00:00 (00:00)
568 Dead But Alive! Southern England Oct 2, 2015 $14.99N/A (N/A)0 .. 20,0000%00:00 (00:00)
569 Pain Train 2 Mar 16, 2017 $6.99N/A (N/A)0 .. 20,0003.7%04:43 (01:34)
570 The Kings' Crusade Oct 8, 2010 $9.99N/A (N/A/71%)50,000 .. 100,0000%00:00 (00:00)
571 R.I.P.D.: The Game Jul 16, 2013 $9.99N/A (N/A)20,000 .. 50,0002.5%05:16 (01:45)
572 Wave of Darkness Nov 5, 2015 $29.99N/A (N/A)0 .. 20,0000%00:00 (00:00)
573 Dark Matter Oct 17, 2013 $9.99N/A (N/A)20,000 .. 50,0000%00:00 (00:00)
574 Zombie Apocalypse: Escape The Undead City Jun 17, 2016 $0.5N/A (N/A)0 .. 20,0000%00:00 (00:00)
575 Gratuitous Space Battles 2 Apr 16, 2015 $9.99N/A (N/A)20,000 .. 50,0000%00:00 (00:00)
576 Risk Jun 10, 2013 $9.99N/A (N/A)20,000 .. 50,0000%00:00 (00:00)
577 Kick-Ass 2 Aug 15, 2014 $19.99N/A (N/A)0 .. 20,0000%00:00 (00:00)
578 Dungeons - The Dark Lord Sep 27, 2011 $19.99N/A (N/A/72%)100,000 .. 200,0000%00:00 (00:00)
579 Mechs & Mercs: Black Talons Jan 9, 2015 $9.99N/A (N/A)0 .. 20,0000%00:00 (00:00)
580 Stellar Impact Apr 12, 2012 $9.99N/A (N/A/74%)50,000 .. 100,0000%00:00 (00:00)
581 Tiamat X May 29, 2015 $1.99N/A (N/A)50,000 .. 100,0000%00:00 (00:00)
582 Urban Empire Jan 20, 2017 $29.992% (35%/62%)50,000 .. 100,0000%00:00 (00:00)
583 Fallen: A2P Protocol Aug 14, 2015 $9.99N/A (N/A)20,000 .. 50,0000%00:00 (00:00)
584 Blue Sheep Mar 31, 2016 $1.99N/A (N/A)0 .. 20,0000%00:00 (00:00)
585 Knight Adventure Oct 15, 2015 $0.99N/A (N/A)20,000 .. 50,00015.89%04:09 (04:31)
586 Into the Void Dec 4, 2015 $4.99N/A (N/A)20,000 .. 50,0000%00:00 (00:00)
587 Arma Tactics Oct 1, 2013 $8.99N/A (N/A/47%)200,000 .. 500,0000%00:00 (00:00)
588 CTU: Counter Terrorism Unit Apr 22, 2016 $14.99N/A (N/A)0 .. 20,0000%00:00 (00:00)
589 Sim Junta Aug 18, 2015 $0.99N/A (N/A)0 .. 20,0000%00:00 (00:00)
590 Shadows of War Jan 2, 2015 $2.99N/A (N/A)20,000 .. 50,0000%00:00 (00:00)
591 Jagged Alliance Flashback Oct 21, 2014 $19.992% (33%)20,000 .. 50,0000%00:00 (00:00)
592 Ranger of the jungle Jul 18, 2016 $3.99N/A (N/A)0 .. 20,0000%00:00 (00:00)
593 Disciples III - Resurrection Oct 11, 2011 $14.99N/A (N/A/63%)100,000 .. 200,0000%00:00 (00:00)
594 Ku: Shroud of the Morrigan Mar 17, 2014 $4.99N/A (N/A)20,000 .. 50,0000%00:00 (00:00)
595 Tank Operations: European Campaign Nov 22, 2013 $14.99N/A (N/A)50,000 .. 100,0000%00:00 (00:00)
596 Evopollution Apr 23, 2014 $4.992% (31%)20,000 .. 50,0000%00:00 (00:00)
597 - Arcane RERaise - Apr 4, 2017 $2.99N/A (N/A)100,000 .. 200,00015.74%03:29 (03:53)
598 Robotex Nov 19, 2014 $4.99N/A (N/A)100,000 .. 200,0000%00:00 (00:00)
599 Ground Pounders Jul 15, 2014 $4.99N/A (N/A)0 .. 20,0000%00:00 (00:00)
600 Psichodelya Aug 8, 2014 $1.99N/A (N/A)50,000 .. 100,0000.61%01:05 (00:21)
601 Zombie Zoeds May 20, 2015 $0.49N/A (N/A)200,000 .. 500,0000.28%04:29 (01:29)
602 Defenders of Time Nov 4, 2014 N/AN/A (N/A/55%)0 .. 20,0000%00:00 (00:00)
603 A Game of Thrones - Genesis Sep 28, 2011 $9.99N/A (N/A)200,000 .. 500,0000%00:00 (00:00)
604 Power of Defense Aug 4, 2010 $9.99N/A (N/A)0 .. 20,0000%00:00 (00:00)
605 Solar Shifter EX Sep 11, 2015 $4.99N/A (N/A)20,000 .. 50,0000%00:00 (00:00)
606 Hard Truck Apocalypse: Arcade / Ex Machina: Arcade Mar 14, 2014 $0.74N/A (N/A)20,000 .. 50,0000%00:00 (00:00)
607 Gridberd Sep 7, 2015 $6.99N/A (N/A)200,000 .. 500,0000%00:00 (00:00)
608 Zombies on a Plane Mar 25, 2016 $4.99N/A (N/A)0 .. 20,0000%00:00 (00:00)
609 APOX Jan 20, 2011 $14.991% (24%/48%)50,000 .. 100,0000%00:00 (00:00)
610 The Asskickers-Steam Edition Feb 6, 2015 $9.99N/A (N/A)0 .. 20,0000%00:00 (00:00)
611 Elite vs. Freedom May 31, 2016 $4.99N/A (N/A)0 .. 20,0000%00:00 (00:00)
612 One Star Apr 17, 2017 $2.99N/A (N/A)50,000 .. 100,0000%00:00 (00:00)
613 Lords of the Black Sun Sep 12, 2014 $29.99N/A (N/A)20,000 .. 50,0000%00:00 (00:00)
614 Human Extinction Simulator Jan 21, 2015 $19.99N/A (N/A)0 .. 20,0000%00:00 (00:00)
615 Gemini Wars Nov 2, 2012 $14.99N/A (N/A/53%)20,000 .. 50,0000%00:00 (00:00)
616 Tryst Sep 14, 2012 $14.99N/A (N/A/50%)0 .. 20,0000%00:00 (00:00)
617 Prison Tycoon 3: Lockdown Jan 29, 2008 $9.99N/A (N/A)20,000 .. 50,0000%00:00 (00:00)
618 Once Bitten, Twice Dead! Jul 7, 2015 $4.99N/A (N/A)20,000 .. 50,0000%00:00 (00:00)
619 Citadels Jul 25, 2013 $14.99N/A (N/A/20%)20,000 .. 50,0000%00:00 (00:00)
620 Star Project Aug 4, 2016 $1.99N/A (N/A)100,000 .. 200,0000.49%04:21 (01:27)
621 Bloodbath Jun 16, 2014 $14.99N/A (N/A)0 .. 20,0000%00:00 (00:00)
622 Magnetic By Nature Nov 10, 2014 $9.99N/A (N/A)20,000 .. 50,0000%00:00 (00:00)

Owners of this game also own:

Access restricted.

This feature is only available to users with special access rights. Sorry.

If you want to proceed, you need to register or log in first and then back Steam Spy on Patreon. Look for Indie or Pro pledge.

Don't forget to use the same email as on Steam Spy!

Playtime distribution:

Access restricted.

This feature is only available to users with special access rights. Sorry.

If you want to proceed, you need to register or log in first and then back Steam Spy on Patreon. Look for Indie or Pro pledge.

Don't forget to use the same email as on Steam Spy!

Playtime (2 weeks):

Access restricted.

This feature is only available to users with special access rights. Sorry.

If you want to proceed, you need to register or log in first and then back Steam Spy on Patreon. Look for Indie or Pro pledge.

Don't forget to use the same email as on Steam Spy!

User reviews:

Login required.

Please register or log in to see this information.